Main page
METAR-TAF:

METAR-TAF

Airports :

Chennault International Airport

Lake Charles, Louisiana, United States

latitude: 30-13N, longitude: 093-09W, elevation: 13 ft

Current weather observation

The report was made 5 hours and 7 minutes ago, at 10:35 UTC
Wind 12 mph from the East
Temperature 73°F
Humidity 100%
Pressure 29.94 in. Hg
Visibility: 5 miles
Scattered clouds at a height of 900 ft
Overcast at a height of 2000 ft

METAR: KCWF 201035Z 09010KT 5SM SCT009 OVC020 23/23 A2994 RMK AO2 T02310230 PWINO

Time: 10:42 (15:42 UTC)


TAF: missing

Weather observations and forecasts of more than 4000 airports (METAR and TAF reports).

The available stations are represented by yellow and red dots on the map.

Hover mouse over dot to see the name of the station.

Then click to see weather observations and forecasts.

To change the map : click on the green buttons with a black cross to zoom in, on the green button with a dash to zoom out, or on the green arrows for adjacent maps.


METAR-TAF: